sat.trackr.live / text

‹ back to catalog

STARLINK-6311

NORAD 56537 · 2023-065AL

PAYLOAD ACTIVE UNKNOWN

§ Identity

Operator
Country
US
Launch date
2023-05-14
Launch site
AFETR
Launch vehicle
Mass (kg)
RCS (m²)

Purposes: comms

External: N2YO · Heavens-Above · Gunter

§ Orbital elements

Epoch: 2026-05-25T04:00:03.998880Z

Period
94.27 min
Inclination
43.0008°
Eccentricity
0.0001311
Mean motion
15.27562162 rev/d
Perigee alt
482.2 km
Apogee alt
484.0 km
Semi-major
6,861.2 km
B*
-4.6090e-4
RAAN
154.7895°
Arg perigee
266.6449°
Mean anomaly
29.9651°
Rev number
569

§ Raw data

STARLINK-63111 56537U 23065AL  26145.16671295 -.00012916  00000+0 -46090-3 0  99992 56537  43.0008 154.7895 0001311 266.6449  29.9651 15.27562162  5694

JSON: /api/v1/satellites/56537 · /tle

For live sub-satellite position, see the globe view (requires WebGL).

§ Visibility from observer

Set your observer location to see the next 7 days of passes ≥ 10°. The values pass through the URL so the page stays shareable.

No JS? Fill the form by hand. The geolocation button needs JavaScript.